INMARSAT 5-F4 (42698 NORAD) Tracking and Keplerian Element Data

This shows tracking and keplerian element data for the satellite.

Feedback or suggestion? Click here.




ElementValue
Catalog42698
NameINMARSAT 5-F4
Epoch Orbit2437
Epoch Day12.85882845
Epoch Year2024
RAAN48.4643
Inclination0.0179
Eccentricity8.3E-06
Argument of Perigee3.9602
Mean Anonmoly65.0937
Mean Motion1.00270193
Decay Rate8.4E-07
L11 42698U 17025A 24012.85882845 .00000084 00000+0 00000+0 0 9991
L22 42698 0.0179 48.4643 0000083 3.9602 65.0937 1.00270193 24377



Live tracking and technical data element details for INMARSAT 5-F4 (NORAD 42698). INMARSAT 5-F4 can be tracked NOW for your location showing map with azimuth and elevation plus other details from your city location.







IsCatalogInMostPopularTable: catalog: 42698, numindb: 867
Update: records affected: 1



GetName: 42698 INMARSAT 5-F4

Hit Count: updated at: Wed, 21 Feb 2024 08:38:14 GMT